This demonstration page uses our WeatherBlox Daily Observations layout. Learn more.

Left ArrowRight Arrow

Hourly Observations for July 24, 2015

Temp ( °F °C ) Dew Point ( °F °C ) Humidity (%) Winds ( mph kmh ) Pressure ( in mb ) Visibility ( mi km ) Precip ( " mm )
12:51 am 00:51 Clear 77 25 56 13.3 48 48 N 5 7 29.89 1012 10 16.0934 N/A
1:51 am 01:51 Clear 77 25 56 13.3 48 48 NW 6 9 29.88 1012 10 16.0934 N/A
2:51 am 02:51 Clear 74 23.3 63 17.2 69 69 S 7 11 29.9 1013 10 16.0934 N/A
3:51 am 03:51 Clear 72 22.2 62 16.7 71 71 E 5 7 29.91 1013 10 16.0934 N/A
4:51 am 04:51 Clear with Light Rain 71 21.7 62 16.7 73 73 N N/A 29.92 1013 10 16.0934 N/A
5:51 am 05:51 Sunny 70 21.1 63 17.2 79 79 SE 5 7 29.95 1014 10 16.0934 N/A
6:51 am 06:51 Sunny 73 22.8 63 17.2 71 71 ESE 5 7 29.96 1015 10 16.0934 N/A
7:51 am 07:51 Sunny 79 26.1 62 16.7 56 56 N N/A 29.96 1015 10 16.0934 N/A
8:51 am 08:51 Sunny 85 29.4 59 15 42 42 WNW 13 20 29.95 1014 10 16.0934 N/A
9:51 am 09:51 Sunny 89 31.7 59 15 36 36 WNW 14 22 29.93 1014 10 16.0934 N/A
10:51 am 10:51 Sunny 92 33.3 58 14.4 32 32 W 12 19 29.91 1013 10 16.0934 N/A
11:51 am 11:51 Sunny 93 33.9 55 12.8 28 28 W 12 19 29.91 1013 10 16.0934 N/A
12:51 pm 12:51 Sunny 94 34.4 53 11.7 25 25 VRB 7 11 29.89 1012 10 16.0934 N/A
1:51 pm 13:51 Sunny 97 36.1 53 11.7 23 23 W 8 13 29.85 1011 10 16.0934 N/A
2:51 pm 14:51 Sunny 98 36.7 53 11.7 22 22 WNW 12 19 29.83 1010 10 16.0934 N/A
3:51 pm 15:51 Sunny 99 37.2 55 12.8 23 23 W 20 31 29.8 1009 10 16.0934 N/A
4:51 pm 16:51 Sunny 99 37.2 54 12.2 22 22 WNW 12 19 29.78 1008 10 16.0934 N/A
5:51 pm 17:51 Sunny 97 36.1 54 12.2 24 24 NW 16 26 29.78 1009 10 16.0934 N/A
6:51 pm 18:51 Sunny 95 35 54 12.2 25 25 WNW 17 28 29.79 1009 10 16.0934 N/A
7:51 pm 19:51 Clear 92 33.3 55 12.8 29 29 NW 13 20 29.8 1009 10 16.0934 N/A
8:51 pm 20:51 Clear 90 32.2 55 12.8 31 31 WNW 8 13 29.83 1010 10 16.0934 N/A
9:51 pm 21:51 Mostly Clear 83 28.3 62 16.7 49 49 SE 7 11 29.88 1012 10 16.0934 N/A
10:51 pm 22:51 Mostly Cloudy 84 28.9 60 15.6 44 44 N 9 15 29.85 1011 10 16.0934 N/A
11:51 pm 23:51 Clear 85 29.4 58 14.4 40 40 WNW 6 9 29.84 1011 10 16.0934 N/A

Powered by AerisWeather